GALAXY 30 (46114 NORAD) Tracking and Keplerian Element Data

This shows tracking and keplerian element data for the satellite.

Feedback or suggestion? Click here.




ElementValue
Catalog46114
NameGALAXY 30
Epoch Orbit112
Epoch Day335.53296778
Epoch Year2020
RAAN288.1342
Inclination0.0173
Eccentricity0.0002117
Argument of Perigee320.9339
Mean Anonmoly97.2203
Mean Motion1.00271005
Decay Rate-1.59E-06
L11 46114U 20056C 20335.53296778 -.00000159 00000-0 00000-0 0 9995
L22 46114 0.0173 288.1342 0002117 320.9339 97.2203 1.00271005 1120

Live tracking and technical data element details for GALAXY 30 (NORAD 46114). GALAXY 30 can be tracked NOW for your location showing map with azimuth and elevation plus other details from your city location.

Track the satellite on the map from your city or location and see movement details for azimuth, elevation, latitude, longitude, range, height, and movement on the map or in text.







IsCatalogInMostPopularTable: catalog: 46114, numindb: 25
Update: records affected: 1



GetName: 46114 GALAXY 30

Hit Count: updated at: Tue, 01 Dec 2020 21:01:21 GMT